CAPE
0 4 1 1 1 2 1 2 5 6 2 0 2 11 0 5 18 45 37 14 1 0 0 0 0 0 0 0 0 0 0 0
0 1 3 1 4 3 1 1 1 2 1 1 1 8 0 1 43 53 55 41 21 4 2 0 0 0 0 0 0 0 0 0
0 0 2 1 2 2 1 1 1 2 1 1 0 0 0 2 14 44 46 41 26 23 22 3 0 0 0 0 0 0 0 0
0 0 1 0 1 2 2 1 1 1 2 0 0 0 0 0 7 21 19 33 34 59 62 54 39 17 2 0 0 0 0 0
0 0 1 1 0 0 0 5 1 1 0 0 0 0 0 0 0 2 18 25 51 91 117 90 56 77 74 48 16 0 0 0
0 0 0 0 0 0 0 3 5 2 0 0 0 0 0 0 0 0 4 1 6 22 20 33 44 44 43 40 13 0 0 0
0 0 0 0 0 0 0 1 3 2 1 0 0 0 0 0 0 0 0 0 0 0 0 4 8 5 1 12 20 1 0 0
0 0 0 0 0 0 0 2 0 1 0 0 0 0 0 0 0 0 0 0 0 0 0 0 0 0 0 0 4 9 0 0
0 0 0 0 0 0 0 2 1 0 0 0 0 0 0 0 0 0 0 0 0 0 0 0 0 0 0 0 0 1 2 0
0 0 0 0 0 0 0 0 0 0 0 0 0 0 0 0 0 0 0 0 0 0 0 0 0 0 0 0 0 5 15 11
0 0 0 0 0 0 0 0 0 0 0 0 0 0 0 0 0 0 0 0 0 0 0 0 0 0 0 0 0 8 3 0
0 0 0 0 0 0 0 0 0 0 0 0 0 0 0 0 0 0 0 0 0 0 0 0 0 0 0 0 0 5 0 0
0 0 0 0 0 0 0 0 0 0 0 0 0 0 0 0 0 0 0 0 0 0 0 0 0 0 0 0 0 16 1 0
0 0 0 2 0 0 0 0 0 0 0 0 0 0 0 0 0 0 0 0 0 0 0 0 0 0 0 0 5 0 0 5
0 0 0 0 0 1 0 0 0 0 0 0 0 0 0 0 0 0 0 0 0 0 0 0 0 0 0 1 0 2 3 0
0 0 0 0 0 0 2 3 0 0 0 0 0 0 0 0 0 0 0 0 0 0 0 0 0 0 0 0 2 1 1 1
0 0 0 0 0 0 0 13 3 0 0 0 0 0 0 0 0 0 0 0 0 0 0 0 0 0 0 0 2 1 2 1
0 0 0 0 0 0 0 1 4 0 0 0 0 0 0 0 0 0 0 0 0 4 4 3 0 0 0 0 1 1 1 2
0 0 0 0 0 0 0 0 0 7 17 25 19 8 0 0 0 1 2 3 2 0 0 0 0 0 1 0 2 0 1 1
CIN
-0 -0 -0 -1 -0 -0 -0 -0 -0 -0 -0 -0 -1 -3 -2 -52 -58 -83 -100 -139 -133 -0 -0 -0 -0 -0 -0 -0 -0 -0 -0 -0
-0 -0 -0 -0 -0 -0 -0 -0 -0 -0 -0 -0 -2 -10 -0 -39 -56 -60 -78 -108 -132 -152 -168 -0 -0 -0 -149 -0 -0 -0 -0 -0
-0 -0 -0 -6 -0 -0 -0 -0 -0 -0 -0 -0 -0 -0 -5 -47 -81 -52 -67 -84 -107 -125 -139 -101 -65 -0 -0 -0 -0 -0 -0 -0
-0 -0 -0 -0 -0 -0 -0 -0 -0 -0 -0 -0 -0 -0 -0 -0 -71 -71 -79 -104 -85 -99 -107 -92 -104 -125 -74 -0 -0 -0 -0 -0
-0 -0 -0 -0 -0 -0 -0 -0 -0 -0 -0 -0 -0 -0 -0 -0 -0 -79 -86 -101 -84 -81 -67 -64 -104 -102 -81 -97 -156 -0 -0 -0
-0 -0 -0 -0 -0 -0 -0 -0 -0 -0 -0 -0 -0 -0 -0 -0 -0 -0 -53 -86 -95 -88 -91 -72 -64 -74 -70 -77 -129 -0 -0 -0
-0 -0 -0 -0 -0 -0 -0 -0 -0 -0 -0 -0 -0 -0 -0 -0 -0 -0 -0 -0 -0 -0 -0 -103 -88 -87 -16 -81 -109 -41 -0 -0
-0 -0 -0 -0 -0 -0 -0 -0 -0 -0 -0 -0 -0 -0 -0 -0 -0 -0 -0 -0 -0 -0 -0 -0 -0 -0 -0 -0 -78 -98 -0 -0
-0 -0 -0 -0 -0 -0 -0 -0 -0 -0 -0 -0 -0 -0 -0 -0 -0 -0 -0 -0 -0 -0 -0 -0 -0 -0 -0 -0 -0 -13 -62 -0
-0 -0 -0 -0 -0 -0 -0 -0 -0 -0 -0 -0 -0 -0 -0 -0 -0 -0 -0 -0 -0 -0 -0 -0 -0 -0 -0 -0 -0 -112 -119 -104
-0 -0 -0 -0 -0 -0 -0 -0 -0 -0 -0 -0 -0 -0 -0 -0 -0 -0 -0 -0 -0 -0 -0 -0 -0 -0 -0 -0 -0 -100 -30 -0
-0 -0 -0 -0 -0 -0 -0 -0 -0 -0 -0 -0 -0 -0 -0 -0 -0 -0 -0 -0 -0 -0 -0 -0 -0 -0 -0 -0 -0 -98 -14 -0
-0 -0 -0 -0 -0 -0 -0 -0 -0 -0 -0 -0 -0 -0 -0 -0 -0 -0 -0 -0 -0 -0 -0 -0 -0 -0 -0 -0 -0 -105 -27 -4
-0 -0 -0 -392 -0 -0 -0 -0 -0 -0 -0 -0 -0 -0 -0 -0 -0 -0 -0 -0 -0 -0 -0 -0 -0 -0 -0 -0 -106 -0 -0 -61
-0 -0 -0 -0 -265 -460 -0 -0 -0 -0 -0 -0 -0 -0 -0 -0 -0 -0 -0 -0 -0 -0 -0 -0 -0 -0 -0 -0 -0 -0 -0 -0
-0 -0 -0 -0 -0 -0 -581 -597 -0 -0 -0 -0 -0 -0 -0 -0 -0 -0 -0 -0 -0 -0 -0 -0 -0 -0 -0 -0 -0 -0 -0 -0
-0 -0 -0 -0 -0 -0 -0 -514 -278 -0 -0 -0 -0 -0 -0 -0 -0 -0 -0 -0 -0 -0 -0 -0 -0 -0 -0 -0 -0 -0 -0 -0
-0 -0 -0 -0 -0 -0 -0 -313 -568 -262 -0 -0 -0 -0 -0 -0 -0 -0 -0 -0 -0 -0 -0 -0 -0 -0 -0 -0 -0 -0 -0 -0
-0 -0 -0 -0 -0 -0 -0 -0 -0 -511 -497 -537 -622 -635 -0 -0 -0 -0 -0 -0 -0 -0 -0 -0 -0 -0 -0 -0 -0 -0 -0 -0
Wind_Speed
10 12 13 14 14 9 3 5 11 10 16 14 11 10 16 27 29 21 15 16 13 11 9 6 5 3 3 4 4 5 7 11
9 11 12 14 15 16 7 6 4 9 11 14 19 15 14 17 17 14 14 12 11 11 10 9 7 5 5 4 7 7 12 14
7 10 11 13 15 15 16 11 7 8 10 8 11 10 13 15 17 14 14 13 13 11 11 9 9 8 9 8 10 13 16 14
7 10 12 13 15 16 16 16 22 19 9 8 9 8 9 13 15 14 13 15 13 12 11 10 9 12 12 11 17 18 18 18
6 11 12 16 16 18 17 19 20 24 22 19 19 18 15 15 16 15 13 15 15 16 11 10 12 10 15 20 23 21 20 17
12 12 14 16 17 17 19 20 21 22 22 24 24 26 27 10 13 17 14 42 38 37 23 13 17 18 19 17 14 15 19 21
15 11 11 14 16 17 16 18 19 20 22 25 26 26 26 22 20 23 18 22 42 44 33 26 18 18 18 19 19 17 17 19
13 12 13 12 14 16 17 19 19 20 21 23 26 27 24 26 26 27 26 22 18 22 16 20 26 31 29 28 23 19 18 20
13 15 16 16 16 16 16 19 20 20 20 21 21 23 22 24 27 27 27 24 18 13 15 20 24 28 30 28 23 20 20 23
11 13 15 16 16 17 18 18 18 18 19 18 18 17 18 19 24 19 21 21 17 16 19 19 25 26 27 29 30 27 25 26
3 13 16 12 12 14 14 16 17 18 18 18 18 19 17 16 15 20 20 18 17 18 19 20 22 23 24 24 26 26 28 32
7 3 9 12 12 15 15 15 15 16 16 16 16 16 16 17 18 19 20 18 18 19 21 21 22 22 24 24 27 31 32 31
16 10 6 7 12 13 14 14 15 15 15 15 16 14 15 17 18 16 15 16 17 16 14 18 23 28 25 27 29 28 30 36
21 13 8 6 8 9 11 13 15 13 13 15 15 15 15 17 18 16 16 17 16 16 13 13 14 19 30 29 25 23 17 18
25 22 16 11 10 10 10 10 10 11 13 15 16 17 19 17 16 16 16 17 16 16 16 15 12 10 13 16 17 16 16 14
30 30 25 17 14 12 11 10 9 9 11 12 16 13 13 13 14 15 16 17 18 18 19 18 18 18 19 19 18 17 18 20
36 30 26 25 17 12 12 12 11 10 10 14 10 10 11 13 13 15 17 18 19 19 19 20 23 24 22 19 17 19 18 19
30 30 36 28 21 16 15 13 13 12 12 12 12 11 11 12 12 12 12 15 16 16 17 18 18 19 19 16 16 18 18 17
31 34 35 35 27 23 20 18 15 13 13 14 14 13 12 11 12 12 13 14 15 15 15 15 16 18 16 15 15 17 16 15
Wind_Direction
111 99 105 111 114 109 250 228 138 137 138 149 215 160 163 218 222 230 216 223 219 223 231 217 232 258 297 296 317 315 289 275
96 100 103 111 114 118 113 166 143 154 154 150 154 160 168 176 207 211 200 200 198 223 237 237 245 247 265 270 297 294 280 271
99 105 107 116 121 122 127 130 171 188 165 200 164 171 177 175 222 199 206 207 212 222 235 234 249 261 266 270 279 283 278 273
126 128 129 122 130 132 128 133 149 147 188 219 214 206 208 213 214 212 214 226 219 222 229 241 247 259 261 265 271 275 277 273
137 144 140 145 138 138 134 140 145 159 156 156 163 163 174 217 220 219 211 233 236 238 226 236 249 248 266 269 269 275 278 280
161 155 150 150 145 139 140 142 145 151 154 163 164 166 168 180 178 182 207 204 195 193 250 249 261 264 269 273 277 279 281 282
169 157 147 148 149 148 140 141 144 147 153 161 165 167 167 166 169 176 185 182 219 224 249 256 260 265 271 276 278 281 281 283
166 165 161 155 155 154 151 153 152 151 154 161 168 172 171 176 177 181 182 185 191 194 231 257 264 266 270 275 280 282 281 283
169 175 172 166 162 161 159 161 160 158 160 164 167 172 175 179 185 187 189 192 200 238 241 262 267 272 272 275 278 281 286 287
177 176 177 174 170 169 169 167 169 168 167 167 171 174 178 183 187 190 197 204 219 239 260 259 269 271 270 273 277 280 286 288
190 174 178 186 186 180 179 177 178 177 176 177 178 181 186 191 195 196 203 213 230 234 237 256 263 262 266 270 275 280 287 289
302 195 182 181 181 183 189 191 188 186 189 190 192 194 196 198 202 206 212 221 231 229 248 255 260 256 264 268 275 284 286 288
302 290 253 201 186 187 190 194 197 199 197 198 201 209 212 210 215 226 229 229 225 235 248 253 261 266 266 272 279 283 286 296
297 298 276 240 220 202 199 201 204 218 226 218 217 225 228 222 224 229 232 230 236 244 254 248 250 250 272 276 277 280 281 276
292 291 282 271 255 229 227 229 235 233 231 219 224 225 223 226 232 235 239 238 243 245 248 252 258 260 252 276 278 274 280 279
289 283 279 276 276 262 253 258 249 242 232 211 208 220 229 244 250 251 251 253 256 256 257 257 269 273 276 279 281 278 279 283
279 287 281 279 283 265 257 265 257 245 225 210 228 235 254 263 263 269 269 264 267 267 260 259 268 276 275 272 272 277 278 282
289 289 275 283 281 273 260 256 271 255 239 241 246 247 259 267 275 274 267 268 274 269 269 269 267 273 277 271 272 282 281 282
290 288 287 279 280 277 274 270 268 265 247 250 258 258 262 271 281 282 286 284 277 276 275 274 274 280 277 277 280 287 287 289